Theta_e
293 294 295 296 298 298 298 299 299 299 299 299 299 299 299 299 299 295 291 295 289 283 281 283 284 279 279 276 272 273 275 278 281 277 272 273 272 275 273 278 278 279 280 281 282 280 278 281 282 284 285 284 282 284
292 293 294 295 296 298 298 298 298 299 299 298 298 298 298 299 299 298 289 293 292 286 277 286 285 286 286 285 281 275 277 274 281 271 271 269 270 271 274 275 280 279 282 277 281 282 285 285 286 288 286 284 284 284
292 292 292 294 295 295 298 297 298 299 298 298 298 298 298 298 299 297 291 292 291 284 283 284 282 285 287 287 290 281 279 284 281 282 274 279 276 271 270 274 277 280 284 282 282 285 287 287 287 287 287 286 285 284
292 292 292 293 294 294 297 297 298 298 298 297 297 297 297 297 298 297 290 292 290 284 276 274 283 282 285 287 287 288 286 286 286 283 282 279 276 278 275 277 276 279 280 279 281 283 285 285 286 287 287 286 286 284
291 291 292 293 292 293 297 297 297 297 297 297 296 296 297 297 297 295 293 292 292 284 274 268 277 282 284 285 285 285 285 284 283 281 281 279 281 281 280 278 277 280 281 280 278 283 284 285 287 286 285 285 284 282
291 291 292 292 292 296 296 296 296 297 296 296 296 296 296 296 296 290 284 290 293 291 280 273 276 277 280 280 281 282 286 286 285 283 282 283 282 280 275 273 280 282 282 284 283 285 285 286 285 285 285 285 285 283
291 291 292 291 294 294 295 296 296 295 295 295 295 295 295 295 291 285 282 284 294 291 281 274 266 273 280 279 278 280 282 283 284 282 282 281 281 283 279 276 281 280 281 283 284 283 282 283 284 284 284 284 279 277
290 291 292 292 292 293 295 295 295 295 295 294 294 294 294 294 292 287 288 292 294 286 282 273 266 266 279 276 277 283 281 283 283 281 278 281 280 282 275 279 281 280 281 280 281 282 284 281 280 280 277 276 276 276
288 289 291 292 291 294 294 294 295 294 294 293 293 293 288 286 283 286 293 295 292 284 276 273 263 262 276 279 280 280 282 277 277 278 280 280 278 274 277 280 280 278 278 278 273 271 271 272 275 274 272 271 274 273
288 289 290 291 292 292 293 294 294 294 294 293 288 282 279 283 291 292 287 283 282 282 279 265 265 265 273 270 265 268 269 271 265 274 278 276 276 277 266 265 265 265 266 267 269 269 267 268 269 269 267 267 269 270
287 288 289 290 291 292 292 293 293 293 292 285 281 276 277 290 284 281 276 275 275 272 271 267 269 268 273 266 266 275 274 273 267 268 272 270 272 270 262 261 260 261 262 262 262 265 264 264 265 268 266 265 265 264
287 288 289 290 291 291 292 292 292 287 284 283 281 283 285 280 276 273 270 271 267 264 265 271 268 273 267 273 269 270 265 265 263 268 268 262 267 257 255 256 258 257 256 258 259 260 261 261 260 261 260 262 260 260
287 289 290 290 291 291 292 292 291 291 288 283 279 277 274 272 270 265 264 260 260 263 270 271 271 271 277 277 269 268 264 263 267 268 268 261 255 254 253 255 255 256 255 256 257 258 258 257 256 256 258 258 258 257
289 289 289 289 290 290 291 291 292 289 282 276 273 269 268 265 259 255 255 255 260 259 260 268 272 273 268 273 271 268 268 265 260 261 266 251 251 251 253 253 252 253 254 254 254 256 256 255 255 255 255 255 256 254
288 288 289 288 290 290 290 291 286 273 273 269 269 261 263 253 254 251 250 251 252 253 258 265 268 274 273 268 269 266 264 263 264 260 251 250 251 251 252 252 252 252 252 252 253 254 255 255 255 254 255 255 256 256
288 287 284 288 288 289 285 279 273 264 256 255 250 253 251 252 249 249 249 247 253 253 257 260 268 270 266 267 265 265 260 260 256 249 249 250 249 250 251 252 252 253 252 252 253 253 253 253 253 253 254 254 254 255
285 282 287 287 284 282 280 270 266 260 257 251 247 248 248 248 247 246 250 252 255 255 259 260 266 263 262 261 255 246 249 246 246 246 248 249 248 248 251 252 252 252 252 252 252 252 253 254 255 254 252 253 253 253
275 281 283 282 277 274 266 266 261 257 252 252 248 248 250 250 248 246 247 252 252 253 256 255 255 258 254 254 247 246 246 247 248 248 249 249 249 248 250 249 251 252 252 252 252 253 253 253 253 252 252 253 253 254
277 277 280 279 274 266 263 260 261 253 252 250 252 252 250 250 251 250 250 252 252 252 252 251 249 246 246 247 246 244 246 247 247 249 251 251 251 252 253 252 253 252 253 253 253 252 252 252 252 253 254 254 252 253
276 277 276 275 272 263 260 258 262 255 249 250 252 251 250 249 250 247 248 249 250 248 245 243 240 241 243 245 245 245 248 250 249 247 248 251 252 252 252 253 252 253 254 254 253 254 254 253 254 254 254 254 254 253
268 268 269 263 259 257 254 254 256 256 254 251 253 252 248 249 246 245 245 248 245 243 243 244 243 245 245 246 248 248 249 251 252 252 251 250 252 252 252 253 253 252 252 252 252 251 252 251 252 253 252 252 252 252
262 266 257 261 256 254 253 252 254 255 251 249 250 250 247 247 245 244 243 243 242 241 243 243 243 242 243 244 245 247 248 249 251 252 252 252 250 250 249 250 251 250 249 249 250 250 250 251 251 251 250 250 250 249
261 259 254 252 251 249 247 250 249 247 246 244 242 243 243 242 242 246 240 239 240 243 242 241 242 244 244 245 246 247 249 250 249 249 249 249 249 249 248 248 248 249 249 248 249 249 249 250 249 249 248 248 247 247
256 249 246 245 245 241 243 242 244 243 242 240 239 238 239 240 243 241 237 235 242 242 242 240 240 243 245 246 244 244 247 250 249 248 249 249 248 246 247 247 247 247 247 248 248 247 247 247 247 247 246 245 244 242
247 239 243 240 243 240 239 237 238 241 238 236 237 238 240 238 237 235 236 238 239 239 241 242 243 243 244 245 246 246 247 248 248 247 247 249 248 248 247 247 246 246 246 247 246 246 245 245 244 243 244 243 242 240
236 238 237 234 238 238 236 236 235 236 235 236 235 237 237 236 236 236 235 238 239 240 241 242 242 244 244 244 246 246 245 246 247 247 247 247 248 249 248 249 248 247 246 245 245 244 244 244 242 242 243 241 242 238
237 236 238 238 237 237 237 237 237 237 234 234 233 236 238 236 235 237 240 240 241 242 244 244 244 245 246 246 247 246 247 247 247 248 247 247 247 247 247 247 247 246 246 244 243 240 238 239 241 242 241 241 238 239
237 237 237 237 236 233 233 232 233 234 235 237 238 236 235 236 237 239 240 245 245 246 246 246 246 246 246 247 246 246 247 247 247 248 247 247 247 246 245 244 244 250 245 244 243 244 241 241 241 241 241 242 243 241
238 236 237 236 235 237 237 236 235 236 239 237 238 240 238 241 242 242 246 247 247 247 246 246 246 245 246 246 246 246 245 245 246 246 246 246 245 245 244 243 242 242 242 239 243 249 248 246 245 245 245 243 244 244
237 235 236 236 237 237 240 240 239 241 242 243 242 244 244 244 245 246 246 246 246 246 246 245 245 245 246 245 246 246 244 243 244 245 243 244 244 241 238 240 240 240 238 234 240 241 244 242 241 238 240 241 241 242
238 237 238 238 239 241 241 241 242 243 243 243 243 242 243 243 246 247 246 247 247 245 244 244 244 244 243 244 242 241 244 241 239 240 238 237 238 238 239 240 241 238 236 236 238 238 240 240 240 240 241 241 242 243
236 233 237 239 240 237 236 239 241 243 243 243 242 241 243 243 245 247 247 244 243 244 244 244 243 245 242 242 238 238 243 240 238 241 240 241 241 241 241 241 240 239 239 240 241 241 241 240 241 242 242 243 243 244
230 229 229 234 237 237 235 234 236 238 239 240 240 233 233 237 243 244 242 240 242 243 243 242 241 239 238 239 239 240 241 240 240 246 249 248 248 247 246 246 244 243 242 242 243 243 242 242 242 243 243 243 244 244
Wind_Speed
30 31 32 31 32 32 32 30 28 28 26 26 25 24 23 24 22 12 2 10 7 2 2 6 8 6 2 2 4 5 4 3 2 4 4 5 5 6 2 6 5 7 7 8 7 11 17 2 2 9 7 6 3 4
33 33 33 32 30 33 33 30 28 29 29 26 24 24 23 23 22 18 4 5 5 3 5 1 4 3 10 9 5 2 6 6 7 2 1 2 2 0 4 7 3 4 4 2 5 3 4 4 8 10 3 4 6 9
38 36 33 32 31 29 34 31 28 30 27 27 26 24 25 24 24 19 4 6 6 4 1 5 9 9 4 8 7 6 3 4 3 4 4 3 6 3 5 10 11 9 12 8 4 10 15 14 9 7 5 9 5 5
33 32 31 32 31 28 36 30 29 29 29 27 24 23 24 23 23 22 5 7 5 3 4 7 1 4 5 8 8 8 11 5 0 1 6 6 7 6 7 5 4 4 2 4 8 5 7 4 7 10 10 7 7 6
27 25 27 27 25 34 31 28 27 27 25 25 21 22 22 22 22 11 6 7 8 6 3 4 1 6 5 8 9 7 9 9 8 8 9 10 4 5 3 2 5 6 7 5 4 7 9 17 12 2 7 7 8 8
25 25 24 22 25 30 25 26 26 29 24 23 21 21 22 21 19 4 4 7 11 6 3 4 3 3 4 6 7 8 11 9 6 6 9 7 5 6 4 5 10 15 10 10 11 12 8 11 5 4 4 9 8 8
22 21 18 12 23 19 22 25 23 23 23 23 22 21 20 19 7 4 4 4 18 10 3 3 4 4 2 3 2 2 5 5 6 5 7 4 5 9 6 13 18 8 8 9 6 2 6 5 4 4 5 8 1 3
21 16 17 14 11 16 24 22 22 24 23 22 21 17 14 14 9 7 3 5 12 6 4 4 4 4 3 3 3 4 5 6 6 5 2 6 3 5 7 12 14 9 6 5 9 9 5 2 1 4 4 2 2 4
14 11 10 11 11 22 21 21 23 24 23 20 17 15 3 3 4 3 14 18 5 3 4 4 6 5 3 2 2 2 3 4 3 6 6 6 7 7 10 18 16 8 7 4 2 2 3 3 5 4 4 3 4 3
10 10 9 11 13 13 19 22 23 23 22 20 7 3 3 5 8 12 12 9 6 3 1 3 2 3 5 2 2 1 1 4 3 5 1 3 4 3 9 10 10 8 8 6 3 4 5 4 3 3 0 2 4 2
9 9 8 9 15 16 18 20 22 23 19 3 4 3 3 9 3 2 3 3 3 5 2 4 6 5 2 4 4 3 3 2 3 6 6 2 4 3 12 10 11 13 11 6 4 3 3 3 5 5 4 6 6 6
8 12 10 11 14 16 19 21 23 7 3 7 7 5 3 3 3 5 2 1 1 6 0 5 4 5 2 3 4 2 4 3 8 2 2 4 1 10 12 11 11 10 10 8 6 5 5 4 4 3 4 5 5 4
9 13 13 14 14 15 18 18 19 21 15 4 4 4 5 2 6 7 6 1 1 2 3 1 3 4 3 3 2 4 4 7 2 2 4 2 5 10 11 10 10 8 9 7 7 5 4 4 5 5 3 4 4 7
14 13 13 12 13 15 15 17 27 17 6 2 5 5 3 3 1 3 4 4 2 2 3 1 2 3 3 4 3 4 4 4 1 3 7 2 8 9 9 8 7 10 8 7 6 6 5 6 5 6 5 6 6 5
8 10 11 11 13 13 12 19 22 7 4 4 3 3 3 2 3 2 1 3 3 3 3 1 2 2 2 2 4 2 2 4 6 5 2 4 9 8 10 9 8 7 7 6 6 4 5 6 6 6 7 7 3 7
9 9 3 4 4 10 20 16 8 5 7 6 10 5 3 4 4 5 3 1 2 3 2 2 2 4 5 4 4 5 5 7 1 3 3 7 7 7 7 8 8 7 6 5 5 5 7 8 5 3 7 8 7 9
17 6 19 23 26 27 23 8 7 9 6 7 4 2 2 4 4 1 2 3 6 3 1 2 5 4 3 3 2 1 3 1 2 3 2 4 5 6 7 6 4 4 6 6 5 8 6 4 3 6 11 7 9 10
7 8 15 13 8 10 5 7 6 7 9 5 5 2 3 4 1 1 2 4 4 3 3 1 2 3 2 5 3 0 1 2 2 2 2 3 4 4 3 3 4 6 9 8 7 6 6 6 8 6 6 6 8 9
13 13 18 18 10 8 6 7 5 7 5 3 4 3 3 3 4 4 4 3 3 3 3 3 6 2 2 2 1 1 1 2 2 3 2 4 4 4 4 4 6 7 8 7 6 4 5 7 5 5 4 5 6 5
16 28 20 25 12 6 7 5 4 6 4 1 3 3 3 3 2 3 6 5 3 3 7 6 2 3 2 2 1 2 3 4 3 2 2 3 4 4 5 4 4 4 5 5 5 7 6 5 6 5 5 6 6 6
13 11 18 10 7 10 7 4 6 4 3 4 1 2 3 2 3 5 4 5 5 5 3 1 1 3 3 2 2 3 4 4 3 1 1 1 3 3 4 5 5 5 5 5 4 6 7 5 5 5 5 6 6 5
5 14 6 10 7 6 7 6 3 2 4 2 3 3 4 3 3 3 3 6 4 0 1 1 2 2 3 3 3 3 4 2 3 3 6 3 2 3 4 4 4 5 5 4 5 5 4 4 4 5 6 5 6 5
8 8 8 11 9 9 2 5 6 6 5 2 3 5 4 3 1 1 4 2 2 1 2 2 3 2 1 3 3 3 6 4 3 4 4 4 3 4 3 5 4 2 4 5 4 3 4 6 6 5 4 4 3 4
14 12 10 8 9 3 3 7 4 5 5 5 5 4 4 2 2 5 3 2 2 2 3 4 1 1 2 3 3 3 4 3 4 5 4 3 4 4 4 4 4 5 4 2 3 3 4 4 5 4 4 3 4 3
15 14 9 9 6 7 8 6 7 6 4 3 4 3 3 3 4 3 1 3 2 2 3 4 3 3 2 1 1 2 5 3 2 4 3 3 3 2 2 2 2 2 3 1 3 3 2 3 3 3 4 3 5 5
14 5 6 4 5 5 2 5 4 2 2 4 2 4 3 4 4 2 3 3 2 1 1 1 2 1 2 2 1 2 3 3 2 3 1 2 2 0 1 0 0 1 2 2 2 3 3 3 3 5 5 6 6 4
9 5 4 1 3 3 4 3 1 4 4 3 3 5 3 3 2 4 2 1 1 2 1 1 1 2 1 0 0 1 2 3 3 2 2 1 1 2 1 0 0 1 1 2 2 3 4 5 5 5 6 6 5 6
2 4 5 5 4 2 4 3 4 2 2 3 1 3 3 5 5 3 3 1 1 1 0 0 0 1 1 0 0 2 1 1 0 1 1 2 2 1 1 1 1 5 1 3 4 4 4 5 6 8 7 9 9 4
4 3 3 5 4 4 3 2 2 3 2 2 1 1 2 2 2 2 1 0 0 1 1 1 1 1 2 1 2 2 1 2 2 2 3 2 2 2 3 3 3 3 3 3 9 10 9 8 9 8 8 6 9 8
3 1 4 2 4 3 2 2 2 1 2 1 2 2 2 2 3 2 2 2 2 2 1 1 1 1 1 1 2 3 2 3 3 3 3 3 3 2 2 4 5 4 3 3 5 6 9 5 7 5 6 6 6 7
2 1 4 3 2 1 2 3 2 2 1 1 2 2 2 3 3 3 3 3 2 2 1 3 3 3 2 3 3 1 3 2 5 7 5 3 4 5 6 6 5 4 3 3 5 5 6 7 7 9 10 12 12 11
4 4 3 2 2 2 4 3 2 1 2 1 1 1 2 1 3 2 4 4 3 4 7 4 3 5 5 4 2 3 5 3 4 5 8 6 6 7 6 6 5 4 5 7 7 8 9 10 9 10 12 15 16 16
2 1 1 2 4 5 3 3 4 4 2 2 2 1 2 2 5 4 1 3 4 5 5 5 5 4 5 6 6 5 6 5 7 11 12 13 14 12 8 6 6 7 8 9 9 9 11 12 13 15 15 16 18 18
Wind_Direction
275 274 269 263 264 249 244 240 236 230 220 217 215 215 216 217 218 195 167 182 179 214 242 182 185 169 82 141 185 237 50 302 180 219 168 209 203 224 214 242 226 229 205 212 222 241 251 4 339 191 323 310 253 207
277 269 266 262 263 249 245 235 231 229 223 214 214 214 219 216 219 206 194 172 151 189 224 288 254 207 199 193 190 215 198 183 204 123 302 65 240 215 164 259 243 226 249 244 229 233 236 218 216 239 174 289 312 310
274 264 257 257 258 256 245 230 223 223 216 213 217 217 218 216 215 204 163 154 165 192 260 224 231 239 209 212 213 222 228 213 246 179 178 212 253 98 217 237 256 259 240 247 260 228 246 282 291 269 225 182 274 267
270 262 253 252 246 261 244 223 218 216 215 213 212 213 214 213 211 206 171 162 160 125 188 260 13 200 214 181 193 217 248 275 237 170 240 236 235 182 249 245 191 215 76 229 260 311 326 320 312 284 267 233 225 234
273 257 249 251 269 259 223 212 206 213 206 210 210 210 210 205 205 198 168 181 174 175 174 255 296 238 179 175 195 197 210 221 228 234 237 230 209 211 201 176 211 175 201 235 254 244 263 268 272 49 307 261 225 225
272 256 243 246 266 210 201 207 206 204 192 198 197 197 206 203 199 135 189 187 192 175 179 190 284 226 172 178 195 202 215 220 230 227 235 222 220 173 202 235 225 235 228 214 250 256 238 254 251 172 235 283 261 219
308 259 247 240 251 213 200 199 195 186 188 180 184 195 199 196 179 181 180 173 186 157 196 173 289 276 217 115 193 210 190 214 210 231 240 246 200 198 226 241 247 212 212 236 225 152 268 209 248 11 265 264 207 91
322 247 229 232 236 209 195 179 174 178 179 178 182 187 195 209 212 216 212 170 165 169 176 146 252 16 216 170 231 192 220 215 206 228 221 238 186 219 223 230 238 216 215 220 227 220 246 40 85 244 292 236 207 201
329 358 312 215 217 192 176 172 174 176 174 175 172 183 162 177 171 189 171 167 156 174 175 136 148 222 209 182 198 233 204 237 204 215 224 185 201 231 204 221 228 213 193 214 58 355 341 269 290 246 224 262 242 218
302 328 301 221 175 180 171 172 176 175 170 172 121 114 167 190 161 142 170 178 185 185 143 152 121 186 143 158 272 59 262 230 225 231 120 248 239 83 28 28 11 37 22 9 24 309 351 319 346 335 87 343 317 318
276 295 270 193 174 179 174 173 173 172 161 102 128 154 223 170 88 181 200 186 154 161 162 178 177 145 266 122 196 210 186 265 279 255 175 167 275 73 10 21 15 2 4 9 35 6 9 324 322 321 13 40 16 33
280 279 250 194 176 175 172 170 172 123 128 150 125 104 119 155 166 188 187 32 126 200 203 159 208 167 235 123 117 235 177 75 236 186 262 245 101 15 4 349 352 358 354 332 21 10 12 18 355 23 35 26 43 29
256 230 187 164 158 165 168 172 151 127 106 65 64 152 178 129 184 167 162 315 31 262 95 58 145 134 133 176 183 128 176 225 102 160 235 224 15 355 349 332 342 343 345 331 10 18 16 29 19 28 74 52 47 60
118 153 154 156 166 168 171 171 148 126 90 145 145 163 153 136 176 169 144 144 52 18 3 334 129 170 197 165 181 222 216 87 253 206 226 17 350 336 329 348 345 336 336 343 351 351 15 59 45 37 41 38 54 66
112 126 149 162 172 181 178 170 110 58 64 82 60 127 88 127 52 108 93 72 343 291 300 200 288 224 164 194 203 120 193 236 197 229 344 320 326 328 334 342 345 337 337 343 342 342 29 47 51 48 41 61 114 98
85 75 46 142 163 130 85 66 40 82 59 63 33 64 358 69 360 28 10 61 335 317 282 257 220 201 207 184 166 211 143 218 139 314 298 317 319 322 337 347 336 340 353 345 1 23 47 52 52 50 63 58 54 70
46 42 82 92 92 73 58 68 38 50 71 55 40 35 52 52 88 109 348 342 329 337 77 300 191 206 328 76 149 14 192 203 273 289 278 298 286 311 322 329 353 7 20 4 26 39 34 35 48 70 67 42 57 59
38 49 56 57 64 57 56 40 84 75 65 38 68 6 50 20 96 51 356 354 7 9 352 74 291 80 157 179 226 216 324 281 262 269 285 290 314 329 342 342 357 25 48 8 18 28 48 57 68 57 49 47 67 59
63 44 41 48 75 87 66 33 42 81 73 107 110 69 71 80 68 33 11 9 52 17 54 32 64 84 125 29 97 311 321 308 292 298 319 341 1 23 25 22 43 46 49 42 23 39 50 45 58 52 41 52 65 47
56 38 30 37 48 74 73 37 52 79 79 152 54 52 79 63 8 11 22 12 40 46 43 44 129 215 208 253 227 238 260 274 282 311 332 5 6 19 29 33 27 43 57 52 36 41 49 41 39 45 47 53 66 56
34 357 19 49 48 54 74 11 59 65 100 77 145 53 65 40 36 13 11 350 58 38 70 56 254 268 271 263 267 262 275 279 282 270 149 93 25 25 39 37 38 43 49 38 37 45 43 25 16 27 43 46 41 39
4 17 51 21 70 56 74 24 55 71 72 117 80 43 44 39 14 9 302 44 58 260 210 225 262 273 342 337 298 290 275 358 10 59 54 68 68 51 32 20 47 55 49 31 30 43 31 15 22 34 44 42 39 38
26 33 49 15 70 44 342 356 65 14 75 19 29 48 29 17 285 333 68 88 229 264 254 252 257 258 195 324 11 2 10 40 56 60 66 71 65 59 62 45 25 50 70 42 30 32 33 16 25 33 28 28 26 38
33 45 35 39 30 49 350 25 24 39 39 36 51 29 355 316 334 50 71 287 275 319 347 309 312 16 16 30 25 349 359 11 67 52 31 63 68 44 47 57 43 37 19 7 30 35 27 18 14 21 20 12 11 9
68 360 28 15 19 38 36 20 4 42 52 350 74 4 328 27 63 54 171 274 315 321 321 328 4 35 98 82 27 7 16 22 68 90 24 45 102 112 79 70 70 47 353 17 37 22 1 353 1 351 355 345 335 319
69 326 55 359 4 51 9 60 35 19 30 45 341 281 11 77 59 259 246 240 250 240 295 349 325 347 51 26 28 16 354 337 326 90 71 356 344 23 103 309 285 101 42 23 0 335 322 322 301 318 308 302 297 300
56 350 336 104 126 87 45 29 52 68 58 27 305 347 41 68 256 255 267 259 222 237 204 215 318 338 77 108 127 15 342 17 20 56 104 83 31 22 16 55 357 15 330 311 278 227 249 274 288 289 289 293 261 260
127 39 58 312 37 33 103 50 48 37 309 288 40 30 155 188 226 241 219 241 209 209 154 91 23 322 305 323 318 316 310 355 285 278 263 237 224 186 147 128 297 314 307 251 256 252 238 253 266 273 273 274 282 245
41 325 70 17 20 46 62 109 242 246 213 116 36 311 268 238 228 236 232 169 219 208 230 227 179 281 230 219 231 237 223 216 203 243 260 276 304 248 200 228 274 282 269 271 285 285 267 248 247 250 263 259 279 284
306 74 82 46 64 46 284 173 263 258 233 237 256 272 248 259 238 198 219 218 226 218 212 229 259 279 274 312 296 287 203 197 208 213 211 234 229 248 251 273 279 268 242 239 279 291 292 302 308 307 291 281 272 271
290 45 68 48 90 288 329 309 268 243 241 249 248 243 266 309 287 209 204 204 204 184 200 240 238 217 228 235 228 273 300 226 216 235 238 256 269 266 264 258 249 243 235 247 266 268 278 283 269 271 275 276 277 274
11 57 93 59 295 301 14 9 322 304 323 276 296 298 300 299 273 225 181 146 163 211 230 221 225 246 212 225 224 246 234 260 233 235 243 245 249 250 253 254 248 238 246 255 253 254 254 254 267 269 275 279 279 278
48 64 60 40 3 356 342 20 15 346 2 343 298 339 250 223 244 270 294 219 185 190 204 209 219 222 220 221 227 242 236 238 251 263 263 256 256 260 260 250 242 231 239 249 255 257 259 262 267 270 270 270 274 276